HS5FXK-3 Weather Reports


time (UTC)temp
C
wind
direction
speed
KPH
gust
KPH
rain 1hr
cm
rain 24hr
cm
rain mn
cm
humidity
%
barometer
mb
20260505124212 31 0 0.0 0.0 0.00 0.00 0.00 76 977.0
20260505122658 31 0 0.0 0.0 0.00 0.00 0.00 73 977.0
20260505121145 31 0 0.0 0.0 0.00 0.00 0.00 70 976.0
20260505115845 31 0 0.0 0.0 0.00 0.00 0.00 71 976.0
20260505114331 32 0 0.0 0.0 0.00 0.00 0.00 64 976.0
20260505112818 32 0 0.0 0.0 0.00 0.00 0.00 64 976.0
20260505111306 32 0 0.0 0.0 0.00 0.00 0.00 62 976.0
20260505101232 33 0 0.0 0.0 0.00 0.00 0.00 60 976.0
20260505095715 33 0 0.0 0.0 0.00 0.00 0.00 60 976.0
20260505094211 33 0 0.0 0.0 0.00 0.00 0.00 59 976.0
20260505092636 33 0 0.0 0.0 0.00 0.00 0.00 56 976.0
20260505091123 34 0 0.0 0.0 0.00 0.00 0.00 53 976.0
20260505085610 35 0 0.0 0.0 0.00 0.00 0.00 49 977.0
20260505084057 35 0 0.0 0.0 0.00 0.00 0.00 50 977.0
20260505083336 35 0 0.0 0.0 0.00 0.00 0.00 49 977.0
20260505081823 35 0 0.0 0.0 0.00 0.00 0.00 49 977.0
20260505080310 36 0 0.0 0.0 0.00 0.00 0.00 47 977.0
20260505075256 36 0 0.0 0.0 0.00 0.00 0.00 47 978.0
20260505073743 37 0 0.0 0.0 0.00 0.00 0.00 47 978.0
20260505072230 36 0 0.0 0.0 0.00 0.00 0.00 48 978.0
20260505070718 35 0 0.0 0.0 0.00 0.00 0.00 50 979.0
20260505065205 35 0 0.0 0.0 0.00 0.00 0.00 51 979.0
20260505063652 35 0 0.0 0.0 0.00 0.00 0.00 52 979.0
20260505062142 35 0 0.0 0.0 0.00 0.00 0.00 53 980.0
20260505061850 34 0 0.0 0.0 0.00 0.00 0.00 55 980.0
20260505060612 33 0 0.0 0.0 0.00 0.00 0.00 56 980.0
20260505055058 35 0 0.0 0.0 0.00 0.00 0.00 56 981.0
20260505053604 35 0 0.0 0.0 0.00 0.00 0.00 56 981.0
20260505052031 33 0 0.0 0.0 0.00 0.00 0.00 58 981.0
20260505050518 33 0 0.0 0.0 0.00 0.00 0.00 58 982.0
20260505040424 31 0 0.0 0.0 0.00 0.00 0.00 73 983.0
20260505034935 30 0 0.0 0.0 0.00 0.00 0.00 74 983.0
20260505034647 30 0 0.0 0.0 0.00 0.00 0.00 75 983.0
20260505034058 29 0 0.0 0.0 0.00 0.00 0.00 81 983.0
20260505033610 29 0 0.0 0.0 0.00 0.00 0.00 82 983.0
20260505033205 28 0 0.0 0.0 0.00 0.00 0.00 83 983.0
20260505031639 28 0 0.0 0.0 0.00 0.00 0.00 89 983.0
20260505030126 28 0 0.0 0.0 0.00 0.00 0.00 92 983.0
20260505024617 28 0 0.0 0.0 0.00 0.00 0.00 93 983.0
20260505023100 27 0 0.0 0.0 0.00 0.00 0.00 94 983.0
20260505021436 27 0 0.0 0.0 0.00 0.00 0.00 98 983.0
20260505015923 26 0 0.0 0.0 0.00 0.00 0.00 99 983.0
20260505015426 27 0 0.0 0.0 0.00 0.00 0.00 99 983.0
20260505013913 27 0 0.0 0.0 0.00 0.00 0.00 99 983.0
20260505012400 26 0 0.0 0.0 0.00 0.00 0.00 99 983.0
20260505010848 27 0 0.0 0.0 0.00 0.00 0.00 99 982.0
20260505005335 27 0 0.0 0.0 0.00 0.00 0.00 99 982.0
20260505003821 26 0 0.0 0.0 0.00 0.00 0.00 99 982.0
20260505002309 26 0 0.0 0.0 0.00 0.00 0.00 99 982.0
20260505000756 26 0 0.0 0.0 0.00 0.00 0.00 99 982.0
20260504235243 26 0 0.0 0.0 0.00 0.00 0.00 99 982.0
20260504233729 26 0 0.0 0.0 0.00 0.00 0.00 99 981.0
20260504232217 26 0 0.0 0.0 0.00 0.00 0.00 99 981.0
20260504230703 25 0 0.0 0.0 0.00 0.00 0.00 99 981.0
20260504225151 25 0 0.0 0.0 0.00 0.00 0.00 99 981.0
20260504223638 25 0 0.0 0.0 0.00 0.00 0.00 99 980.0
20260504222126 25 0 0.0 0.0 0.00 0.00 0.00 99 980.0
20260504220613 25 0 0.0 0.0 0.00 0.00 0.00 99 980.0
20260504215101 25 0 0.0 0.0 0.00 0.00 0.00 99 980.0
20260504213548 25 0 0.0 0.0 0.00 0.00 0.00 99 980.0
20260504212358 25 0 0.0 0.0 0.00 0.00 0.00 99 980.0
20260504210845 25 0 0.0 0.0 0.00 0.00 0.00 99 980.0
20260504205333 26 0 0.0 0.0 0.00 0.00 0.00 99 980.0
20260504203820 26 0 0.0 0.0 0.00 0.00 0.00 99 980.0
20260504202307 26 0 0.0 0.0 0.00 0.00 0.00 99 980.0
20260504200849 26 0 0.0 0.0 0.00 0.00 0.00 99 980.0
20260504195337 26 0 0.0 0.0 0.00 0.00 0.00 99 980.0
20260504193951 26 0 0.0 0.0 0.00 0.00 0.00 99 981.0
20260504192439 26 0 0.0 0.0 0.00 0.00 0.00 99 981.0
20260504190927 26 0 0.0 0.0 0.00 0.00 0.00 99 981.0
20260504185414 26 0 0.0 0.0 0.00 0.00 0.00 99 981.0
20260504183902 26 0 0.0 0.0 0.00 0.00 0.00 99 981.0
20260504182349 26 0 0.0 0.0 0.00 0.00 0.00 99 981.0
20260504180836 26 0 0.0 0.0 0.00 0.00 0.00 99 981.0
20260504175324 26 0 0.0 0.0 0.00 0.00 0.00 99 982.0
20260504173812 26 0 0.0 0.0 0.00 0.00 0.00 97 982.0
20260504172259 26 0 0.0 0.0 0.00 0.00 0.00 99 982.0
20260504170746 26 0 0.0 0.0 0.00 0.00 0.00 99 982.0
20260504150608 30 0 0.0 0.0 0.00 0.00 0.00 69 980.0
20260504140518 31 0 0.0 0.0 0.00 0.00 0.00 57 978.0